Ocala, FL

3:01 PM EDT on March 27, 2017 (GMT -0400)
Ocala Regional-Taylor

Weather History for KOCF - December, 2012

Change the Weather History Date:

Tuesday, December 4, 2012

  Actual Average Record
Temperature  
Mean Temperature 64 °F -  
Max Temperature 78 °F 70 °F 82 °F (1998)
Min Temperature 51 °F 47 °F 33 °F (2010)
Growing Degree Days 14 (Base 50)    
Moisture  
Dew Point 49 °F    
Average Humidity 69    
Maximum Humidity 88    
Minimum Humidity 32    
Precipitation  
Precipitation 0.00 in - - ()
Sea Level Pressure  
Sea Level Pressure 30.26 in    
Wind  
Wind Speed 2 mph (ENE)    
Max Wind Speed 9 mph    
Max Gust Speed 12 mph    
Visibility 9 miles    
Events      
Averages and records for this station are not official NWS values.
T = Trace of Precipitation, MM = Missing Value Source: NWS Daily Summary

Daily Weather History Graph

Daily Weather History Graph

Search for Another Location

Airport or City:

Trip Planner

Search our weather history database for the weather conditions in past years. The results will help you decide how hot, cold, wet, or windy it might be!

Date:

Astronomy

Dec. 04, 2012 Rise Set
Actual Time 7:08 AM EST 5:30 PM EST
Civil Twilight 6:42 AM EST 5:56 PM EST
Nautical Twilight 6:12 AM EST 6:25 PM EST
Astronomical Twilight 5:43 AM EST 6:54 PM EST
Moon 10:59 PM EST (12/4) 11:16 AM EST (12/4)
Length of Visible Light 11h 14m
Length of Day
10h 22m
Waning Gibbous, 69% of the Moon is Illuminated
Dec 4
Waning Gibbous
Dec 6
Last Quarter
Dec 13
New
Dec 20
First Quarter
Dec 28
Full

Hourly Weather History & Observations

Time (EST) Temp. Dew Point Humidity Pressure Visibility Wind Dir Wind Speed Gust Speed Precip Events Conditions
12:15 AM 57.2 °F 51.8 °F 82% 30.28 in 10.0 mi Calm Calm - N/A   Clear
12:35 AM 55.4 °F 51.8 °F 88% 30.28 in 10.0 mi North 3.5 mph - N/A   Clear
1:15 AM 55.4 °F 51.8 °F 88% 30.27 in 3.0 mi Calm Calm - N/A   Clear
1:35 AM 55.4 °F 51.8 °F 88% 30.27 in 2.0 mi North 3.5 mph - N/A   Clear
1:55 AM 53.6 °F 50.0 °F 88% 30.27 in 9.0 mi Calm Calm - N/A   Clear
2:15 AM 53.6 °F 50.0 °F 88% 30.27 in 10.0 mi Calm Calm - N/A   Clear
2:35 AM 53.6 °F 50.0 °F 88% 30.27 in 1.0 mi North 4.6 mph - N/A   Clear
2:55 AM 53.6 °F 48.2 °F 82% 30.26 in 10.0 mi Calm Calm - N/A   Clear
3:15 AM 53.6 °F 48.2 °F 82% 30.26 in 6.0 mi NNE 3.5 mph - N/A   Clear
3:55 AM 51.8 °F 48.2 °F 88% 30.25 in 10.0 mi Calm Calm - N/A   Clear
4:15 AM 53.6 °F 48.2 °F 82% 30.26 in 1.8 mi NNE 3.5 mph - N/A   Clear
4:35 AM 53.6 °F 48.2 °F 82% 30.26 in 10.0 mi Calm Calm - N/A   Clear
4:55 AM 53.6 °F 48.2 °F 82% 30.26 in 0.8 mi Calm Calm - N/A   Unknown
5:15 AM 53.6 °F 48.2 °F 82% 30.26 in 10.0 mi NE 3.5 mph - N/A   Clear
5:35 AM 51.8 °F 46.4 °F 82% 30.26 in 10.0 mi Calm Calm - N/A   Clear
5:55 AM 51.8 °F 46.4 °F 82% 30.27 in 10.0 mi NE 3.5 mph - N/A   Clear
6:15 AM 51.8 °F 46.4 °F 82% 30.28 in 10.0 mi NE 3.5 mph - N/A   Clear
6:35 AM 51.8 °F 48.2 °F 88% 30.29 in 9.0 mi NE 3.5 mph - N/A   Clear
6:50 AM 51.8 °F 48.2 °F 88% 30.29 in 3.0 mi Calm Calm - N/A   Clear
7:50 AM 55.4 °F 51.8 °F 88% 30.30 in 10.0 mi NE 3.5 mph - N/A   Clear
9:50 AM 71.6 °F 55.4 °F 57% 30.33 in 10.0 mi Calm Calm - N/A   Clear
10:50 AM 73.4 °F 53.6 °F 50% 30.32 in 10.0 mi ESE 4.6 mph - N/A   Partly Cloudy
11:50 AM 75.2 °F 50.0 °F 41% 30.30 in 10.0 mi ESE 9.2 mph - N/A   Partly Cloudy
12:50 PM 77.0 °F 48.2 °F 36% 30.27 in 10.0 mi East 5.8 mph 11.5 mph N/A   Partly Cloudy
1:50 PM 78.8 °F 48.2 °F 34% 30.24 in 10.0 mi ENE 8.1 mph - N/A   Partly Cloudy
2:50 PM 78.8 °F 46.4 °F 32% 30.22 in 10.0 mi ENE 6.9 mph - N/A   Partly Cloudy
3:50 PM 77.0 °F 46.4 °F 34% 30.22 in 10.0 mi ENE 4.6 mph - N/A   Scattered Clouds
4:50 PM 73.4 °F 46.4 °F 38% 30.22 in 10.0 mi NE 3.5 mph - N/A   Partly Cloudy
5:50 PM 69.8 °F 46.4 °F 43% 30.24 in 10.0 mi ENE 3.5 mph - N/A   Partly Cloudy
6:50 PM 66.2 °F 46.4 °F 49% 30.24 in 10.0 mi East 3.5 mph - N/A   Clear
7:55 PM 66.2 °F 50.0 °F 56% 30.24 in 10.0 mi East 3.5 mph - N/A   Clear
8:15 PM 66.2 °F 50.0 °F 56% 30.24 in 10.0 mi East 3.5 mph - N/A   Clear
8:35 PM 66.2 °F 51.8 °F 60% 30.24 in 10.0 mi East 3.5 mph - N/A   Clear
8:55 PM 64.4 °F 51.8 °F 64% 30.24 in 10.0 mi ENE 3.5 mph - N/A   Clear
9:15 PM 64.4 °F 51.8 °F 64% 30.25 in 10.0 mi Calm Calm - N/A   Clear
9:35 PM 62.6 °F 50.0 °F 63% 30.25 in 10.0 mi East 3.5 mph - N/A   Clear
9:55 PM 62.6 °F 50.0 °F 63% 30.24 in 10.0 mi East 3.5 mph - N/A   Clear
10:15 PM 62.6 °F 51.8 °F 68% 30.24 in 10.0 mi Calm Calm - N/A   Clear
10:35 PM 62.6 °F 51.8 °F 68% 30.24 in 10.0 mi Calm Calm - N/A   Clear
10:55 PM 60.8 °F 50.0 °F 68% 30.24 in 10.0 mi Calm Calm - N/A   Clear
11:15 PM 59.0 °F 50.0 °F 72% 30.24 in 10.0 mi Calm Calm - N/A   Clear
11:35 PM 57.2 °F 48.2 °F 72% 30.24 in 10.0 mi North 4.6 mph - N/A   Clear
11:55 PM 57.2 °F 48.2 °F 72% 30.24 in 10.0 mi Calm Calm - N/A   Clear